Location: Betz
(49.1556°N, 2.9558°E)
Time: 18:31:31
(UTC+00:00)

CZ-4C R/B - Pass Details

Date: 18 September 2019
Orbit: 653 x 1349 km, 63.4° (Epoch: 21 October)

Event Time Altitude Azimuth Distance (km) Brightness Sun altitude
Rises 18:43:22 0° 273° (W) 3,288 7.4 -8.6°
Reaches altitude 10° 18:46:01 10° 287° (WNW) 2,458 6.3 -9.0°
Maximum altitude 18:50:50 27° 344° (NNW) 1,732 4.2 -9.7°
Drops below altitude 10° 18:56:23 10° 40° (NE) 2,871 4.7 -10.6°
Sets 18:59:45 0° 52° (NE) 3,955 5.3 -11.2°
